FW5429 Weather Reports


time (UTC)temp
F
wind
direction
speed
knots
gust
knots
rain 1hr
in
rain 24hr
in
rain mn
in
humidity
%
barometer
mb
20260507070511 50 243 0.0 3.5 0.00 0.32 0.00 89 1005.2
20260507070028 50 0 0.9 3.5 0.00 0.32 0.00 89 1004.7
20260507065512 50 0 0.0 3.5 0.00 0.32 0.00 88 1004.8
20260507065012 50 296 0.9 7.0 0.00 0.32 0.00 89 1004.9
20260507064526 50 217 1.7 7.0 0.00 0.32 0.00 88 1004.9
20260507064011 50 303 1.7 5.2 0.00 0.32 0.00 89 1004.6
20260507063514 50 270 0.9 5.2 0.00 0.32 0.00 89 1004.8
20260507063028 50 194 0.0 4.3 0.00 0.32 0.00 90 1005.1
20260507062511 50 221 0.9 2.6 0.00 0.32 0.00 90 1005.2
20260507062010 51 251 0.9 2.6 0.00 0.32 0.00 90 1005.1
20260507061529 51 0 0.0 3.5 0.00 0.32 0.00 90 1005.0
20260507061009 51 0 0.0 4.3 0.00 0.32 0.00 90 1004.8
20260507060510 51 255 1.7 4.3 0.00 0.32 0.00 89 1004.7
20260507060026 51 109 0.9 3.5 0.00 0.32 0.00 89 1004.7
20260507055512 51 69 0.0 3.5 0.00 0.32 0.00 90 1004.7
20260507055011 51 213 0.9 4.3 0.00 0.32 0.00 90 1004.5
20260507054528 51 257 1.7 4.3 0.00 0.32 0.00 90 1004.8
20260507054011 51 313 1.7 4.3 0.00 0.32 0.00 90 1004.8
20260507053511 52 229 0.9 3.5 0.00 0.32 0.00 90 1004.6
20260507053028 52 228 0.9 2.6 0.00 0.32 0.00 90 1004.3
20260507052511 52 277 0.9 5.2 0.00 0.32 0.00 90 1004.3
20260507052010 52 344 0.0 5.2 0.00 0.32 0.00 90 1004.6
20260507051528 52 0 0.9 5.2 0.00 0.32 0.00 90 1004.6
20260507051010 52 255 0.9 4.3 0.00 0.32 0.00 91 1004.7
20260507050508 52 0 0.0 4.3 0.00 0.32 0.00 91 1004.5
20260507050030 53 0 0.9 4.3 0.00 0.32 0.00 91 1004.5
20260507045509 53 269 0.9 5.2 0.00 0.32 0.00 91 1004.4
20260507045012 53 192 1.7 5.2 0.00 0.32 0.00 91 1004.3
20260507044528 53 121 0.9 3.5 0.00 0.32 0.00 91 1004.4
20260507044011 53 242 0.0 3.5 0.00 0.32 0.00 91 1004.5
20260507043511 53 278 0.9 4.3 0.00 0.32 0.00 92 1004.4
20260507043029 53 229 0.9 4.3 0.00 0.32 0.00 92 1004.3
20260507042512 53 275 0.9 6.1 0.00 0.32 0.00 92 1004.2
20260507042010 54 256 0.0 6.1 0.01 0.32 0.00 92 1004.2
20260507041528 54 360 1.7 6.1 0.01 0.32 0.00 92 1004.2
20260507041010 54 82 1.7 5.2 0.01 0.32 0.00 93 1004.0
20260507040510 54 217 0.0 1.7 0.01 0.32 0.00 94 1004.0
20260507040026 55 0 0.0 5.2 0.01 0.32 0.00 94 1004.1
20260507035512 55 65 0.9 6.1 0.01 0.32 0.32 94 1003.9
20260507035014 55 0 1.7 6.1 0.01 0.32 0.32 95 1004.1
20260507034534 55 244 0.9 8.7 0.01 0.32 0.32 96 1004.0
20260507034009 55 236 1.7 8.7 0.01 0.32 0.32 96 1004.4
20260507033511 55 234 1.7 8.7 0.01 0.32 0.32 97 1004.2
20260507033026 54 195 1.7 7.0 0.01 0.32 0.32 96 1004.2
20260507032516 53 214 0.0 1.7 0.01 0.32 0.32 96 1004.1
20260507032015 53 0 0.0 1.7 0.00 0.31 0.31 96 1003.9
20260507031528 53 0 0.0 1.7 0.00 0.31 0.31 95 1003.8
20260507031009 53 205 0.0 1.7 0.00 0.31 0.31 96 1003.7
20260507030517 52 205 0.0 1.7 0.00 0.31 0.31 95 1003.7
20260507030031 52 0 0.0 0.9 0.00 0.31 0.31 95 1003.8
20260507025511 52 0 0.0 0.9 0.00 0.31 0.31 95 1003.6
20260507025011 52 205 0.0 0.9 0.00 0.31 0.31 95 1003.7
20260507024527 52 0 0.0 0.9 0.00 0.31 0.31 95 1003.9
20260507024012 52 0 0.0 0.9 0.00 0.31 0.31 95 1003.8
20260507023511 53 0 0.0 0.9 0.00 0.31 0.31 95 1003.8
20260507023028 53 0 0.0 0.9 0.00 0.31 0.31 95 1003.9
20260507022509 53 0 0.0 0.9 0.00 0.31 0.31 95 1003.9
20260507022012 53 0 0.0 0.9 0.00 0.31 0.31 95 1003.9
20260507021528 53 0 0.0 0.9 0.00 0.31 0.31 95 1004.0
20260507021011 53 0 0.0 2.6 0.00 0.31 0.31 96 1004.0
20260507020508 53 0 0.0 2.6 0.00 0.31 0.31 96 1004.2
20260507020044 53 205 0.0 3.5 0.00 0.31 0.31 96 1004.2
20260507015509 53 0 0.0 3.5 0.00 0.31 0.31 96 1004.3
20260507015012 53 196 0.0 3.5 0.00 0.31 0.31 95 1004.4
20260507014533 53 0 0.0 1.7 0.00 0.31 0.31 95 1004.2
20260507014010 53 171 0.0 1.7 0.00 0.31 0.31 95 1004.4
20260507013509 53 0 0.0 0.9 0.00 0.31 0.31 95 1004.4
20260507013028 53 0 0.0 0.9 0.01 0.31 0.31 95 1004.5
20260507012008 53 0 0.0 1.7 0.01 0.31 0.31 95 1004.6
20260507011539 53 0 0.0 4.3 0.01 0.31 0.31 95 1004.5
20260507011009 53 0 0.0 4.3 0.01 0.31 0.31 95 1004.3
20260507010509 53 183 0.0 2.6 0.01 0.31 0.31 95 1004.5
20260507010029 53 211 0.9 3.5 0.01 0.31 0.31 95 1004.5
20260507005509 53 200 0.9 4.3 0.01 0.31 0.31 95 1004.5
20260507005010 53 0 0.9 6.1 0.01 0.31 0.31 95 1004.5
20260507004527 53 220 1.7 6.1 0.01 0.31 0.31 95 1004.5
20260507004012 53 216 0.9 5.2 0.01 0.31 0.31 95 1004.5
20260507003511 53 191 0.9 5.2 0.01 0.31 0.31 94 1004.6
20260507003025 53 244 0.0 4.3 0.00 0.30 0.30 95 1004.5
20260507002508 53 0 0.9 3.5 0.00 0.30 0.30 95 1004.5
20260507001031 54 169 1.7 4.3 0.00 0.30 0.30 95 1004.5
20260507000508 53 209 0.9 6.1 0.00 0.30 0.30 95 1004.5
20260507000026 54 0 0.9 6.1 0.00 0.30 0.30 95 1004.3
20260506235509 53 199 0.9 5.2 0.00 0.30 0.30 95 1004.5
20260506235014 53 212 1.7 6.1 0.00 0.30 0.30 95 1004.5
20260506234527 54 167 1.7 6.1 0.00 0.30 0.30 95 1004.7
20260506234010 53 188 2.6 7.8 0.00 0.30 0.30 95 1004.7
20260506233509 53 188 1.7 7.8 0.00 0.30 0.30 95 1004.7
20260506233027 53 175 2.6 6.1 0.00 0.30 0.30 95 1004.7
20260506232510 53 206 2.6 6.1 0.01 0.30 0.30 95 1004.6
20260506231528 53 213 1.7 7.0 0.01 0.30 0.30 95 1004.6
20260506231009 53 220 2.6 7.8 0.01 0.30 0.30 94 1004.6
20260506230511 53 219 1.7 7.8 0.02 0.30 0.30 94 1004.7
20260506225509 53 0 1.7 7.0 0.02 0.30 0.30 94 1004.7
20260506225009 53 202 1.7 7.0 0.03 0.30 0.30 94 1004.8
20260506224530 53 162 0.9 6.1 0.03 0.30 0.30 94 1004.8
20260506224007 53 173 1.7 6.1 0.03 0.30 0.30 94 1004.9
20260506223508 53 198 1.7 5.2 0.04 0.30 0.30 94 1004.8
20260506223032 53 164 0.9 5.2 0.06 0.30 0.30 94 1004.9
20260506222513 53 202 1.7 7.0 0.06 0.29 0.29 94 1004.9
20260506222009 53 220 1.7 7.0 0.06 0.29 0.29 94 1004.9
20260506221528 53 183 1.7 5.2 0.07 0.29 0.29 93 1004.9
20260506221011 54 215 1.7 7.0 0.08 0.29 0.29 93 1004.9
20260506220509 54 201 1.7 9.6 0.09 0.28 0.28 94 1005.0
20260506220033 54 210 3.5 9.6 0.10 0.28 0.28 93 1005.1
20260506215509 54 217 2.6 7.8 0.11 0.28 0.28 93 1005.0
20260506215009 54 236 0.9 7.8 0.11 0.27 0.27 94 1005.2
20260506214528 54 198 2.6 7.8 0.12 0.27 0.27 94 1005.1
20260506214010 54 215 2.6 7.8 0.14 0.27 0.27 94 1005.1
20260506213515 55 182 1.7 7.8 0.14 0.26 0.26 94 1005.3
20260506213027 55 199 1.7 6.1 0.12 0.24 0.24 94 1005.4
20260506212509 55 223 1.7 6.1 0.12 0.23 0.23 93 1005.4
20260506212014 55 248 2.6 6.1 0.12 0.22 0.22 93 1005.3
20260506211527 55 188 1.7 6.1 0.12 0.22 0.22 93 1005.4
20260506211009 55 225 1.7 6.1 0.10 0.20 0.20 93 1005.4
20260506210515 55 0 1.7 6.1 0.09 0.19 0.19 93 1005.5
20260506210046 55 249 1.7 7.0 0.09 0.18 0.18 93 1005.4
20260506205509 55 175 1.7 7.0 0.08 0.17 0.17 92 1005.5
20260506205014 55 215 1.7 6.1 0.07 0.16 0.16 92 1005.6
20260506204527 56 208 1.7 7.0 0.05 0.14 0.14 92 1005.6
20260506204008 56 238 2.6 7.0 0.05 0.13 0.13 92 1005.5
20260506203514 56 227 1.7 7.0 0.04 0.12 0.12 92 1005.5
20260506203026 56 223 2.6 6.1 0.04 0.12 0.12 92 1005.5
20260506202509 56 198 1.7 6.1 0.04 0.11 0.11 92 1005.6
20260506202012 57 194 1.7 5.2 0.03 0.10 0.10 92 1005.4
20260506201526 57 213 0.9 5.2 0.05 0.10 0.10 92 1005.5
20260506201009 57 221 0.9 5.2 0.07 0.10 0.10 92 1005.5
20260506200512 57 209 0.9 2.6 0.08 0.09 0.09 93 1005.4
20260506200030 57 205 0.0 1.7 0.08 0.09 0.09 93 1005.4
20260506195511 56 0 0.0 3.5 0.08 0.09 0.09 92 1005.4
20260506195013 56 253 0.0 4.3 0.08 0.09 0.09 92 1005.4
20260506194528 56 84 0.0 4.3 0.09 0.09 0.09 91 1005.7
20260506194010 57 200 0.9 4.3 0.08 0.08 0.08 91 1006.5
20260506193511 57 0 0.0 1.7 0.08 0.08 0.08 91 1005.8
20260506193035 57 251 0.0 1.7 0.08 0.08 0.08 90 1005.9
20260506192510 57 251 0.0 1.7 0.07 0.07 0.07 90 1006.3
20260506192011 57 0 0.0 1.7 0.06 0.06 0.06 90 1006.2
20260506191529 57 0 0.0 2.6 0.05 0.05 0.05 89 1006.3
20260506191010 57 0 0.9 2.6 0.03 0.03 0.03 88 1006.8
20260506190511 58 0 0.0 2.6 0.01 0.01 0.01 88 1006.3
20260506190030 58 0 0.0 1.7 0.01 0.01 0.01 87 1006.0
20260506185512 58 0 0.0 3.5 0.01 0.01 0.01 86 1005.9
20260506185007 58 0 0.0 4.3 0.01 0.01 0.01 85 1006.1
20260506184536 58 216 0.9 6.1 0.00 0.00 0.00 85 1006.1
20260506184011 58 207 0.0 6.1 0.00 0.00 0.00 83 1006.4
20260506183517 58 209 0.9 8.7 0.00 0.00 0.00 82 1006.1
20260506183027 58 0 1.7 8.7 0.00 0.00 0.00 80 1005.9
20260506182511 58 193 2.6 8.7 0.00 0.00 0.00 79 1005.7
20260506182012 58 227 1.7 7.8 0.00 0.00 0.00 79 1005.8
20260506181536 58 196 2.6 7.8 0.00 0.00 0.00 78 1005.7
20260506181008 58 191 0.9 5.2 0.00 0.00 0.00 78 1005.9
20260506180514 58 165 2.6 5.2 0.00 0.00 0.00 77 1006.1
20260506180027 59 232 1.7 5.2 0.00 0.00 0.00 77 1006.0
20260506175508 59 124 1.7 7.8 0.00 0.00 0.00 77 1006.0
20260506175007 59 159 1.7 7.8 0.00 0.00 0.00 76 1006.2
20260506174530 59 190 1.7 8.7 0.00 0.00 0.00 76 1006.2
20260506174011 59 217 1.7 8.7 0.00 0.00 0.00 75 1006.3
20260506173509 60 121 2.6 7.8 0.00 0.00 0.00 75 1006.2
20260506173028 60 196 1.7 8.7 0.00 0.00 0.00 75 1006.2
20260506172507 60 178 3.5 9.6 0.00 0.00 0.00 75 1006.2
20260506172013 60 178 1.7 9.6 0.00 0.00 0.00 75 1006.3
20260506171533 60 182 2.6 7.0 0.00 0.00 0.00 75 1006.4
20260506171013 60 190 1.7 7.0 0.00 0.00 0.00 74 1006.5
20260506170512 61 207 2.6 7.0 0.00 0.00 0.00 74 1006.6
20260506170031 61 198 1.7 7.0 0.00 0.00 0.00 73 1006.7
20260506165511 62 237 2.6 7.0 0.00 0.00 0.00 73 1006.9
20260506165011 62 194 1.7 6.1 0.00 0.00 0.00 73 1006.9
20260506164544 62 207 1.7 6.1 0.00 0.00 0.00 73 1006.9
20260506164014 63 161 1.7 6.1 0.00 0.00 0.00 74 1007.0
20260506163511 63 154 2.6 6.1 0.00 0.00 0.00 74 1007.1
20260506163028 63 209 0.9 6.1 0.00 0.00 0.00 75 1007.2
20260506162511 63 222 1.7 6.1 0.00 0.00 0.00 75 1007.3
20260506162015 63 226 1.7 6.1 0.00 0.00 0.00 74 1007.3
20260506161528 63 217 1.7 5.2 0.00 0.00 0.00 75 1007.5
20260506161014 63 202 1.7 4.3 0.00 0.00 0.00 74 1007.7
20260506160511 63 311 0.9 4.3 0.00 0.00 0.00 75 1007.8
20260506160030 63 210 1.7 4.3 0.00 0.00 0.00 74 1007.8
20260506155510 63 229 0.9 6.1 0.00 0.00 0.00 76 1007.8
20260506155012 62 221 0.9 6.1 0.00 0.00 0.00 76 1008.1
20260506154528 62 214 0.9 8.7 0.00 0.00 0.00 77 1008.1
20260506154014 61 182 2.6 8.7 0.00 0.00 0.00 77 1008.1
20260506153028 61 195 1.7 8.7 0.00 0.00 0.00 77 1008.0
20260506152510 61 165 1.7 8.7 0.00 0.00 0.00 78 1007.8
20260506152012 61 194 2.6 7.0 0.00 0.00 0.00 78 1008.2
20260506151530 61 212 1.7 7.0 0.00 0.00 0.00 77 1008.4
20260506151011 61 252 1.7 4.3 0.00 0.00 0.00 77 1008.3
20260506150511 61 78 0.9 4.3 0.00 0.00 0.00 77 1008.2
20260506150027 61 278 0.9 6.1 0.00 0.00 0.00 76 1008.0
20260506145509 61 213 1.7 6.1 0.00 0.00 0.00 77 1007.9
20260506145008 61 234 1.7 4.3 0.00 0.00 0.00 77 1008.1
20260506144530 61 208 1.7 4.3 0.00 0.00 0.00 78 1007.9
20260506144013 61 171 1.7 4.3 0.00 0.00 0.00 78 1008.0
20260506143517 61 208 0.9 4.3 0.00 0.00 0.00 78 1008.0
20260506143036 60 218 0.9 4.3 0.00 0.00 0.00 78 1007.7
20260506141530 59 204 1.7 6.1 0.00 0.00 0.00 81 1007.9
20260506141011 58 226 2.6 6.1 0.00 0.00 0.00 81 1007.9
20260506140510 58 228 0.9 5.2 0.00 0.00 0.00 82 1008.1
20260506140028 58 217 1.7 3.5 0.00 0.00 0.00 82 1008.3
20260506135508 58 180 0.9 4.3 0.00 0.00 0.00 82 1008.3
20260506135008 57 284 0.9 5.2 0.00 0.00 0.00 82 1008.5
20260506134526 58 153 2.6 5.2 0.00 0.00 0.00 82 1008.5
20260506134014 58 201 1.7 4.3 0.00 0.00 0.00 81 1008.5
20260506133509 58 205 0.9 4.3 0.00 0.00 0.00 82 1008.4
20260506133029 57 219 1.7 4.3 0.00 0.00 0.00 82 1008.5
20260506132511 57 199 0.9 4.3 0.00 0.00 0.00 83 1008.5
20260506132010 57 0 1.7 4.3 0.00 0.00 0.00 82 1008.5
20260506131528 57 219 0.9 3.5 0.00 0.00 0.00 82 1008.5
20260506131010 57 213 0.9 3.5 0.00 0.00 0.00 82 1008.5
20260506130509 57 216 0.9 3.5 0.00 0.00 0.00 82 1008.4
20260506130026 57 273 0.9 3.5 0.00 0.00 0.00 82 1008.4
20260506125512 57 217 0.0 5.2 0.00 0.00 0.00 82 1008.3
20260506125009 57 250 1.7 5.2 0.00 0.00 0.00 82 1008.2
20260506124527 57 211 0.9 4.3 0.00 0.00 0.00 82 1008.5
20260506124009 56 105 1.7 5.2 0.00 0.00 0.00 82 1008.5
20260506123511 56 0 0.0 5.2 0.00 0.00 0.00 83 1008.5
20260506123026 56 182 0.9 5.2 0.00 0.00 0.00 83 1008.5
20260506122512 56 189 1.7 5.2 0.00 0.00 0.00 83 1008.6
20260506122012 56 231 0.9 4.3 0.00 0.00 0.00 84 1008.5
20260506121528 56 215 1.7 4.3 0.00 0.00 0.00 84 1008.6
20260506121011 56 0 0.0 3.5 0.00 0.00 0.00 84 1008.8
20260506120511 56 0 0.9 3.5 0.00 0.00 0.00 84 1008.7
20260506120047 55 210 0.9 3.5 0.00 0.00 0.00 84 1008.8
20260506115508 55 209 0.0 2.6 0.00 0.00 0.00 85 1008.8
20260506115013 55 196 0.0 2.6 0.00 0.00 0.00 86 1008.7
20260506114526 54 0 0.9 2.6 0.00 0.00 0.00 86 1009.0
20260506114012 54 209 0.0 2.6 0.00 0.00 0.00 86 1009.1
20260506113511 54 0 0.0 1.7 0.00 0.00 0.00 86 1009.1
20260506113028 53 200 0.0 2.6 0.00 0.00 0.00 86 1008.9
20260506112510 53 208 0.9 2.6 0.00 0.00 0.00 86 1008.9
20260506112010 53 200 0.0 2.6 0.00 0.00 0.00 87 1009.1
20260506111527 53 0 0.0 2.6 0.00 0.00 0.00 87 1009.0
20260506111010 53 0 0.0 2.6 0.00 0.00 0.00 87 1009.0
20260506110509 52 0 0.0 3.5 0.00 0.00 0.00 87 1008.9
20260506110030 52 202 0.9 3.5 0.00 0.00 0.00 88 1009.0
20260506105507 52 211 0.0 1.7 0.00 0.00 0.00 89 1008.9
20260506105010 52 211 0.0 1.7 0.00 0.00 0.00 89 1008.9
20260506104538 51 0 0.0 1.7 0.00 0.00 0.00 89 1009.0
20260506104016 51 0 0.0 1.7 0.00 0.00 0.00 89 1009.2
20260506103510 51 0 0.0 1.7 0.00 0.00 0.00 89 1008.9
20260506103039 51 0 0.0 1.7 0.00 0.00 0.00 89 1009.0
20260506102516 51 0 0.0 1.7 0.00 0.00 0.00 89 1009.1
20260506102010 50 0 0.0 1.7 0.00 0.00 0.00 89 1009.1
20260506101528 50 0 0.0 1.7 0.00 0.00 0.00 89 1009.1
20260506101009 50 0 0.0 1.7 0.00 0.00 0.00 90 1008.8
20260506100516 50 211 0.0 1.7 0.00 0.00 0.00 90 1008.7
20260506100027 50 211 0.0 1.7 0.00 0.00 0.00 90 1008.9
20260506095510 49 0 0.0 0.0 0.00 0.00 0.00 90 1009.0
20260506095011 49 0 0.0 0.0 0.00 0.00 0.00 90 1009.0
20260506094528 49 0 0.0 0.0 0.00 0.00 0.00 90 1009.0
20260506094010 49 0 0.0 0.9 0.00 0.00 0.00 90 1008.9
20260506093511 49 0 0.0 0.9 0.00 0.00 0.00 89 1008.9
20260506093028 49 0 0.0 0.9 0.00 0.00 0.00 89 1008.8
20260506092509 49 0 0.0 0.9 0.00 0.00 0.00 89 1008.9
20260506092011 49 0 0.0 0.9 0.00 0.00 0.00 89 1008.7
20260506091528 50 0 0.0 0.9 0.00 0.00 0.00 89 1008.7
20260506091007 50 0 0.0 0.0 0.00 0.00 0.00 88 1008.7
20260506090510 50 0 0.0 0.9 0.00 0.00 0.00 88 1008.8
20260506090027 50 0 0.0 0.9 0.00 0.00 0.00 88 1008.9
20260506085510 50 0 0.0 0.9 0.00 0.00 0.00 88 1008.7
20260506085008 50 0 0.0 0.9 0.00 0.00 0.00 87 1008.7
20260506084558 50 0 0.0 0.9 0.00 0.00 0.00 87 1008.7
20260506084012 50 0 0.0 0.9 0.00 0.00 0.00 87 1008.7
20260506083511 50 211 0.0 1.7 0.00 0.00 0.00 87 1008.7
20260506083024 50 0 0.0 1.7 0.00 0.00 0.00 87 1008.6
20260506082508 50 0 0.0 0.9 0.00 0.00 0.00 86 1008.7
20260506082013 51 0 0.0 0.9 0.00 0.00 0.00 86 1008.6
20260506081537 51 0 0.0 0.9 0.00 0.00 0.00 86 1008.6
20260506081011 51 0 0.0 0.9 0.00 0.00 0.00 86 1008.5
20260506080508 51 0 0.0 0.9 0.00 0.00 0.00 85 1008.7
20260506073512 51 0 0.0 1.7 0.00 0.00 0.00 84 1008.3
20260506073026 52 0 0.0 1.7 0.00 0.00 0.00 84 1008.4
20260506072512 51 0 0.0 1.7 0.00 0.00 0.00 84 1008.3
20260506072013 51 0 0.0 3.5 0.00 0.00 0.00 84 1008.1
20260506071528 52 0 0.0 3.5 0.00 0.00 0.00 84 1008.1
20260506071009 52 0 0.0 1.7 0.00 0.00 0.00 84 1007.9